Weather in Talovka

Russia / Volgograd Oblast     50°35′59″N   43°33′41″E
temp.,
°C
wind,
m/s
gust,
m/s
humid.,
%
clouds,
%
prec.,
mm/h
press.,
hPa
HPBL,
m
7 march, sun
sun700:00−6nw6119090 0.1 1016484
03:00−9nw5109272 0.1 1017411
06:00−10wnw489475 0.0 1018256
09:00−7wsw488442 0.0 1019460
12:00−3wsw7107163 0.0 10171347
15:00−1sw7116981 0.1 10141291
18:00−3sw71471100 0.0 1012616
21:00−3sw81671100 0.0 1010897
8 march, mon
mon800:00−3sw9177491 0.0 1008916
03:00−2wsw9168894 0.1 1007853
06:00−2wsw81593100 0.6 1007722
09:00−2sw8138699 0.7 1007767
12:000wsw81388100 0.1 10071028
15:000wsw81287100 0.3 10061052
18:000sw61382100 0.0 1006505
21:00−1w3695100 1.3 1008339
9 march, tue
tue900:00−4nw2594100 0.1 1009170
03:00−5nw2293100 0.1 100989
06:00−8nw359495 0.0 1010199
09:00−7nw249190 0.3 1012259
12:00−5nw358497 0.1 1013547
15:00−5nw468080 0.1 1014624
18:00−8nnw369297 0.0 1014230
21:00−9nw489181 0.0 1017314
10 march, wed
wed1000:00−11nw37900 0.0 1018259
03:00−12nw479129 0.0 1020311
06:00−14nw599235 0.0 1021329
09:00−14nw589055 0.0 1022351
12:00−13nw578276 0.0 1024612
15:00−12nw577860 0.0 1025693
18:00−14nnw48848 0.0 1025468
21:00−16nnw47894 0.0 1027313
11 march, thu
thu1100:00−18nnw35922 0.0 1028233
03:00−19n35916 0.0 1029226
06:00−20n34910 0.0 1030193
09:00−19n23810 0.0 1032243
12:00−15n22670 0.0 1032356
15:00−13n22630 0.0 1032344
18:00−15nne12800 0.0 103231
21:00−16ese11760 0.0 103321